Sheppard AFB, TX

10:39 AM CST on December 05, 2016 (GMT -0600)
Sheppard Air Force Base-Wichita Falls Municipal

Weather History for KSPS - October, 2012

Change the Weather History Date:

Saturday, October 13, 2012

  Actual Average Record
Temperature  
Mean Temperature 73 °F 66 °F  
Max Temperature 80 °F 78 °F 98 °F (1954)
Min Temperature 65 °F 53 °F 37 °F (1969)
Degree Days  
Heating Degree Days 0 3  
Month to date heating degree days 58 27  
Since 1 July heating degree days 62 40  
Cooling Degree Days 8 3  
Month to date cooling degree days 41 60  
Year to date cooling degree days 2858 2339  
Growing Degree Days 23 (Base 50)    
Moisture  
Dew Point 67 °F    
Average Humidity 68    
Maximum Humidity 90    
Minimum Humidity 45    
Precipitation  
Precipitation 0.39 in 0.11 in 1.78 in (2008)
Month to date precipitation 0.39 1.21  
Year to date precipitation 18.89 23.75  
Snow  
Snow 0.00 in 0.00 in - ()
Month to date snowfall 0.0 0.0  
Since 1 July snowfall 0.0 0.0  
Snow Depth -    
Sea Level Pressure  
Sea Level Pressure 29.85 in    
Wind  
Wind Speed 15 mph (South)    
Max Wind Speed 23 mph    
Max Gust Speed 26 mph    
Visibility 9 miles    
Events Rain , Thunderstorm    
T = Trace of Precipitation, MM = Missing Value Source: NWS Daily Summary

Daily Weather History Graph

Daily Weather History Graph

Search for Another Location

Airport or City:

Trip Planner

Search our weather history database for the weather conditions in past years. The results will help you decide how hot, cold, wet, or windy it might be!

Date:

Astronomy

Oct. 13, 2012 Rise Set
Actual Time 7:37 AM CDT 7:01 PM CDT
Civil Twilight 7:12 AM CDT 7:26 PM CDT
Nautical Twilight 6:43 AM CDT 7:55 PM CDT
Astronomical Twilight 6:14 AM CDT 8:24 PM CDT
Moon 5:33 AM CDT (10/13) 5:43 PM CDT (10/13)
Length of Visible Light 12h 14m
Length of Day
11h 23m
Waning Crescent, 5% of the Moon is Illuminated
Oct 13
Waning Crescent
Oct 15
New
Oct 21
First Quarter
Oct 29
Full
Nov 6
Last Quarter

Hourly Weather History & Observations

Time (CDT) Temp. Heat Index Dew Point Humidity Pressure Visibility Wind Dir Wind Speed Gust Speed Precip Events Conditions
12:52 AM 73.4 °F - 64.4 °F 73% 30.02 in 10.0 mi SSE 13.8 mph - N/A   Clear
1:52 AM 71.6 °F - 64.4 °F 78% 30.00 in 10.0 mi SSE 15.0 mph - N/A   Scattered Clouds
2:52 AM 72.0 °F - 64.9 °F 78% 29.94 in 10.0 mi SSE 11.5 mph - N/A   Mostly Cloudy
3:52 AM 71.1 °F - 64.9 °F 81% 29.92 in 10.0 mi South 15.0 mph - N/A   Scattered Clouds
4:52 AM 71.6 °F - 66.2 °F 83% 29.94 in 10.0 mi SSE 17.3 mph - N/A   Clear
5:52 AM 71.1 °F - 66.0 °F 84% 29.91 in 10.0 mi South 15.0 mph - N/A   Clear
6:47 AM 71.6 °F - 66.2 °F 83% 29.95 in 10.0 mi South 15.0 mph - N/A   Mostly Cloudy
6:52 AM 71.1 °F - 66.9 °F 87% 29.92 in 10.0 mi South 11.5 mph - N/A   Mostly Cloudy
7:29 AM 71.6 °F - 66.2 °F 83% 29.94 in 10.0 mi SSE 16.1 mph 21.9 mph N/A   Mostly Cloudy
7:52 AM 71.1 °F - 66.9 °F 87% 29.90 in 10.0 mi SSE 12.7 mph - N/A   Partly Cloudy
8:52 AM 71.6 °F - 68.0 °F 88% 29.92 in 10.0 mi SSE 12.7 mph - N/A   Partly Cloudy
9:52 AM 73.9 °F - 68.0 °F 82% 29.89 in 10.0 mi South 17.3 mph 25.3 mph N/A   Partly Cloudy
10:00 AM 73.4 °F - 68.0 °F 83% 29.93 in 10.0 mi South 17.3 mph 24.2 mph 0.00 in Rain , Thunderstorm Light Thunderstorms and Rain
10:37 AM 73.4 °F - 69.8 °F 88% 29.93 in 10.0 mi South 13.8 mph - N/A   Scattered Clouds
10:52 AM 73.9 °F - 70.0 °F 87% 29.89 in 10.0 mi South 12.7 mph - 0.00 in   Mostly Cloudy
11:00 AM 73.4 °F - 69.8 °F 88% 29.92 in 10.0 mi South 15.0 mph - N/A   Overcast
11:25 AM 73.4 °F - 69.8 °F 88% 29.91 in 7.0 mi South 11.5 mph - 0.01 in Rain Light Rain
11:52 AM 75.0 °F - 71.1 °F 87% 29.87 in 10.0 mi South 13.8 mph - 0.02 in   Partly Cloudy
12:52 PM 75.9 °F - 71.1 °F 85% 29.85 in 10.0 mi South 13.8 mph - 0.00 in   Overcast
1:33 PM 75.2 °F - 71.6 °F 89% 29.87 in 7.0 mi South 10.4 mph - 0.01 in Rain Light Rain
1:52 PM 75.0 °F - 72.0 °F 90% 29.81 in 10.0 mi South 15.0 mph - 0.01 in   Overcast
2:23 PM 78.8 °F - 73.4 °F 83% 29.81 in 10.0 mi South 23.0 mph 27.6 mph N/A   Scattered Clouds
2:52 PM 80.6 °F 84.6 °F 71.6 °F 74% 29.79 in 10.0 mi South 24.2 mph 33.4 mph N/A   Scattered Clouds
3:13 PM 78.8 °F - 71.6 °F 78% 29.77 in 10.0 mi South 23.0 mph 38.0 mph N/A   Mostly Cloudy
3:52 PM 77.0 °F - 70.0 °F 79% 29.72 in 10.0 mi South 21.9 mph 29.9 mph N/A Thunderstorm Mostly Cloudy
4:11 PM 77.0 °F - 69.8 °F 78% 29.77 in 10.0 mi South 19.6 mph 27.6 mph N/A Thunderstorm Thunderstorm
4:15 PM 73.4 °F - 69.8 °F 88% 29.78 in 1.8 mi South 40.3 mph 55.2 mph N/A Thunderstorm Unknown
4:38 PM 69.8 °F - 68.0 °F 94% 29.75 in 2.0 mi South 31.1 mph 39.1 mph N/A Rain , Thunderstorm Heavy Thunderstorms and Rain
4:52 PM 70.0 °F - 66.9 °F 90% 29.70 in 4.0 mi South 20.7 mph 34.5 mph 0.31 in Thunderstorm Overcast
4:54 PM 69.8 °F - 66.2 °F 88% 29.73 in 5.0 mi South 18.4 mph 27.6 mph N/A Thunderstorm Mostly Cloudy
5:06 PM 69.8 °F - 66.2 °F 88% 29.75 in 10.0 mi South 15.0 mph 24.2 mph N/A   Mostly Cloudy
5:13 PM 71.6 °F - 66.2 °F 83% 29.75 in 10.0 mi South 16.1 mph - N/A   Mostly Cloudy
7:52 PM 68.0 °F - 62.1 °F 81% 29.72 in 10.0 mi SW 10.4 mph - N/A   Partly Cloudy
8:52 PM 69.8 °F - 64.4 °F 83% 29.81 in 10.0 mi SW 10.4 mph - N/A   Overcast
9:52 PM 66.9 °F - 62.1 °F 84% 29.80 in 10.0 mi SW 9.2 mph - N/A   Clear
10:52 PM 70.0 °F - 48.9 °F 47% 29.80 in 10.0 mi WSW 13.8 mph - N/A   Clear
11:52 PM 66.2 °F - 44.6 °F 46% 29.84 in 10.0 mi WSW 11.5 mph - N/A   Clear